This is the latest recevied weather packets stored in our database for station/object N6HGA-1. If no packets are shown the sender has not sent any weather packets the latest 10 day(s).
| Time | Temp. | Humidity | Pressure | Rain* | Wind** | Luminosity | Snow |
|---|---|---|---|---|---|---|---|
| 1777704854 | 19.44° C | 55% | - | 0 mm | - | - | - |
| 1777704555 | 19.44° C | 55% | - | 0 mm | - | - | - |
| 1777704254 | 19.44° C | 55% | - | 0 mm | - | - | - |
| 1777703954 | 18.89° C | 55% | - | 0 mm | - | - | - |
| 1777703653 | 18.89° C | 57% | - | 0 mm | - | - | - |
| 1777703353 | 18.89° C | 40% | - | 0 mm | - | - | - |
| 1777703052 | 18.89° C | 57% | - | 0 mm | - | - | - |
| 1777702752 | 19.44° C | 56% | - | 0 mm | - | - | - |
| 1777702452 | 19.44° C | 54% | - | 0 mm | - | - | - |
| 1777702152 | 19.44° C | 56% | - | 0 mm | - | - | - |
| 1777701851 | 20° C | 55% | - | 0 mm | - | - | - |
| 1777701551 | 20° C | 54% | - | 0 mm | - | - | - |
| 1777701251 | 20° C | 54% | - | 0 mm | - | - | - |
| 1777700950 | 20° C | 54% | - | 0 mm | - | - | - |
| 1777700649 | 20° C | 54% | - | 0 mm | - | - | - |
| 1777700348 | 20° C | 53% | - | 0 mm | - | - | - |
| 1777699748 | 20.56° C | 53% | - | 0 mm | - | - | - |
| 1777699447 | 20.56° C | 53% | - | 0 mm | - | - | - |
| 1777698544 | 21.67° C | 51% | - | 0 mm | - | - | - |
| 1777698244 | 21.67° C | 51% | - | 0 mm | - | - | - |
| 1777697944 | 21.11° C | 49% | - | 0 mm | - | - | - |
| 1777697043 | 21.11° C | 53% | - | 0 mm | - | - | - |
| 1777696743 | 21.11° C | 51% | - | 0 mm | - | - | - |
| 1777696442 | 21.11° C | 54% | - | 0 mm | - | - | - |
| 1777696144 | 21.11° C | 55% | - | 0 mm | - | - | - |
* Rain since midnight (hover to see other rain measurements)
** Current wind speed in m/s (hover to see current wind gust speed)